Miscellaneous Local Product
Issued by NWS Hastings, NE

Home | Current Version | Previous Version | Text Only | Print | Product List | Glossary On
Versions: 1 2 3 4 5 6 7 8 9 10 11 12 13 14 15 16 17 18 19 20 21 22 23 24 25 26 27 28 29 30 31 32 33 34 35 36 37 38 39 40 41 42 43 44 45 46 47 48 49 50
432
AXUS43 KGID 290302
MISGRI

GID CWA HOURLY WEATHER ROUNDUP
NATIONAL WEATHER SERVICE HASTINGS NE
1000 PM CDT SUN AUG 28 2016

NOTE: "FAIR" INDICATES FEW OR NO CLOUDS BELOW 12,000 FEET WITH NO
SIGNIFICANT WEATHER AND/OR OBSTRUCTIONS TO VISIBILITY.

...SOUTH CENTRAL NEBRASKA...

CITY           SKY/WX    TMP DP  RH WIND       PRES   REMARKS
GRAND ISLAND   CLOUDY    76  68  76 SE12      30.12R
HASTINGS       CLOUDY    77  68  73 SE15G26   30.13R
KEARNEY        CLOUDY    72  66  83 SE7       30.11R
ORD            CLOUDY    72  65  78 S5        30.10R
YORK           CLOUDY    73  66  78 SE7       30.13R
AURORA         CLOUDY    73  69  89 SE7       30.13R
LEXINGTON      CLEAR     69  64  83 E3        30.12R
HOLDREGE       PTCLDY    69  63  82 SE3       30.12R
HEBRON         CLOUDY    71  65  82 SE17      30.13R

...NEBRASKA PANHANDLE...

CITY           SKY/WX    TMP DP  RH WIND       PRES   REMARKS
CHADRON        CLOUDY    76  46  34 SW3       30.05R
ALLIANCE       CLEAR     65  55  70 S9        30.11R
SCOTTSBLUFF    MOCLDY    71  56  58 CALM      30.11R
SIDNEY         PTCLDY    66  49  54 S8        30.16R

...WESTERN AND NORTH CENTRAL NEBRASKA...

CITY           SKY/WX    TMP DP  RH WIND       PRES   REMARKS
VALENTINE      PTCLDY    79  55  43 S14       30.06R
AINSWORTH      CLEAR     74  63  67 S12       30.10R
ONEILL         PTCLDY    77  66  69 SE8       30.10R
BROKEN BOW     CLOUDY    68  62  81 CALM      30.12R
IMPERIAL       CLEAR     67  60  78 SE9       30.13R
NORTH PLATTE   CLEAR     70  58  65 SE5       30.12R
MCCOOK         PTCLDY    72  62  71 E7        30.11R

...EASTERN NEBRASKA...

CITY           SKY/WX    TMP DP  RH WIND       PRES   REMARKS
NORFOLK        CLEAR     73  65  75 S10       30.11R
SO SIOUX CITY  MOCLDY    72  65  78 SE5       30.09R
TEKAMAH        PTCLDY    69  66  90 SW3       30.08S
COLUMBUS       CLEAR     73  63  68 SE8       30.12R
ALBION         PTCLDY    75  67  77 SE9       30.12R
OMAHA EPPLEY   MOCLDY    74  66  76 S7        30.09F
OFFUTT AFB     MOCLDY    71  68  92 SE5       30.10S
MILLARD        PTCLDY    72  66  82 SE3       30.10S
LINCOLN        CLOUDY    72  66  81 S6        30.12R
NEBRASKA CITY  CLOUDY    69  69  99 S6        30.12R
BEATRICE       CLOUDY    71  67  86 SE6       30.12R
FALLS CITY     PTCLDY    70  68  93 CALM      30.12R

...NORTHERN KANSAS...

CITY           SKY/WX    TMP DP  RH WIND       PRES   REMARKS
GOODLAND       CLOUDY    67  59  75 SE3       30.13R
HILL CITY      PTCLDY    74  65  73 S5        30.11R
NORTON         PTCLDY    73  59  60 SE7       30.11R
SMITH CENTER   CLEAR     73  68  83 SE7       30.11R
BELOIT         PTCLDY    73  68  83 E7        30.09
HAYS           CLOUDY    72  57  60 SW3       30.11R
RUSSELL        CLOUDY    70  65  84 SW7       30.09R
CONCORDIA      MOCLDY    77  69  76 E5        30.11R
SALINA         CLOUDY    78  70  76 SE8       30.09R
TOPEKA         PTCLDY    77  73  87 CALM      30.12R



USA.gov is the U.S. government's official web portal to all federal, state and local government web resources and services.